[[{"header":{"parameterUnit":"m.s-1","parameterCategory":2,"la1":30.2991,"la2":30.254,"lo1":-89.0895,"lo2":-89.0444,"dy":0.0017,"dx":0.0017,"nx":28,"ny":28,"refTime":"2024-04-09T03:00:00:Z","depth":"0","parameterNumber":2,"parameterNumberName":"U-component_of_CURRENTS"},"data":[0,0,0,0,0,0,0,0,0,0,0,0,0,0,0,0,0,0,0,0,0,0,0,0,0,0,0,0,0,0,0,0,0,0,0,0,0,0,0,0,0,0,0,0,0,0,0,0,0,0,0,0,0,0,0,0,0,0,-0.2239,-0.224,0,-0.2259,-0.2259,-0.2259,-0.2235,-0.2235,-0.2234,-0.2234,-0.219,-0.2189,-0.2188,0,0,0,0,0,0,0,0,0,0,0,0,0,-0.2155,-0.2156,-0.2239,-0.224,-0.224,-0.2259,-0.2259,-0.2259,-0.2235,-0.2235,-0.2234,-0.2233,-0.219,-0.2189,-0.2188,0,0,0,0,0,0,0,0,0,0,0,0,0,-0.2181,-0.2157,-0.2239,-0.2234,-0.2234,-0.2259,-0.2259,-0.2259,-0.2235,-0.2235,-0.2234,-0.2233,-0.219,-0.2189,-0.2188,-0.2198,0,0,-0.2185,-0.2185,0,0,0,0,0,0,0,0,-0.218,-0.2184,-0.2234,-0.2234,-0.2234,-0.2247,-0.2213,-0.2237,-0.2236,-0.2231,-0.2234,-0.2233,-0.2206,-0.2204,-0.2205,-0.2196,-0.2194,-0.2185,-0.2184,-0.2184,-0.2184,0,0,0,0,0,0,0,-0.2178,-0.2183,-0.2243,-0.2235,-0.2235,-0.2222,-0.2224,-0.2218,-0.2218,-0.2231,-0.223,-0.2239,-0.2205,-0.2206,-0.2203,-0.2193,-0.2185,-0.2184,-0.2183,-0.2183,-0.218,-0.2181,0,0,0,0,0,0,-0.2186,-0.2181,-0.2243,-0.2244,-0.2209,-0.2224,-0.2227,-0.2241,-0.222,-0.2218,-0.224,-0.2238,-0.2208,-0.2205,-0.2202,-0.2216,-0.2184,-0.2183,-0.2182,-0.218,-0.218,-0.2181,0,0,0,0,0,0,-0.2184,-0.2191,-0.2242,-0.2216,-0.2222,-0.2227,-0.2242,-0.2242,-0.2243,-0.2228,-0.2223,-0.2242,-0.2207,-0.2203,-0.22,-0.2214,-0.2183,-0.2182,-0.2179,-0.218,-0.2181,-0.2243,0,0,0,0,0,0,-0.2182,-0.2191,-0.2197,-0.2217,-0.2224,-0.2263,-0.2244,-0.2243,-0.2251,-0.2249,-0.2228,-0.2223,-0.2206,-0.2202,-0.2199,-0.2212,-0.2181,-0.2178,-0.2179,-0.218,-0.224,-0.2246,-0.225,0,0,0,0,0,-0.2178,-0.2195,-0.2197,-0.2204,-0.2235,-0.2265,-0.2267,-0.2265,-0.2252,-0.226,-0.2245,-0.2224,-0.2206,-0.2202,-0.2199,-0.2211,-0.2178,-0.2179,-0.218,-0.2238,-0.2244,-0.225,0,0,0,0,0,0,-0.2158,-0.2196,-0.2198,-0.2224,-0.2245,-0.2262,-0.2266,-0.2269,-0.2265,-0.2255,-0.2235,-0.223,-0.2229,-0.2213,-0.2209,-0.2212,-0.2187,-0.2188,-0.2232,-0.2238,-0.2243,-0.2246,-0.218,0,0,0,0,0,-0.216,-0.2179,-0.2214,-0.2229,-0.2243,-0.2254,-0.2263,-0.2268,-0.2272,-0.2268,-0.2257,-0.224,-0.2233,-0.223,-0.2217,-0.2225,-0.2214,-0.2228,-0.2234,-0.2238,-0.2237,-0.2242,-0.2248,-0.2185,-0.2185,-0.2185,0,0,-0.2155,-0.2177,-0.2186,-0.2226,-0.2236,-0.2267,-0.2256,-0.2276,-0.2297,-0.2264,-0.2274,-0.2257,-0.2238,-0.2243,-0.2242,-0.2232,-0.2252,-0.224,-0.2244,-0.224,-0.2244,-0.2251,-0.2256,-0.2186,-0.2185,-0.2185,0,0,-0.2159,-0.2176,-0.2196,-0.2223,-0.2254,-0.2268,-0.2278,-0.2302,-0.2305,-0.2321,-0.2299,-0.2294,-0.2284,-0.2278,-0.2272,-0.2299,-0.2276,-0.2291,-0.2324,-0.233,-0.2336,-0.234,-0.2344,-0.2348,-0.2298,-0.2298,-0.2298,0,-0.2149,-0.2186,-0.2205,-0.2238,-0.2262,-0.2274,-0.2307,-0.232,-0.2338,-0.2347,-0.2328,-0.2323,-0.2302,-0.2319,-0.232,-0.2311,-0.2308,-0.2305,-0.2338,-0.2342,-0.2346,-0.2348,-0.2352,-0.2301,-0.2301,-0.23,-0.23,0,-0.2174,-0.2208,-0.2222,-0.2269,-0.2297,-0.2326,-0.236,-0.2377,-0.2379,-0.2392,-0.2405,-0.2382,-0.2377,-0.2373,-0.2351,-0.2371,-0.2358,-0.2343,-0.2326,-0.2356,-0.2357,-0.236,-0.2305,-0.2304,-0.2303,-0.2303,0,0,-0.2139,-0.2224,-0.2228,-0.2262,-0.2319,-0.2346,-0.2386,-0.2429,-0.2454,-0.2459,-0.2488,-0.247,-0.2453,-0.2444,-0.2423,-0.2425,-0.2444,-0.2395,-0.2393,-0.2404,-0.2457,-0.2428,-0.2428,-0.2436,-0.2437,-0.2438,-0.2451,0,-0.2149,-0.2218,-0.2259,-0.2321,-0.2361,-0.2399,-0.2441,-0.2479,-0.2497,-0.2526,-0.2516,-0.2523,-0.2484,-0.2477,-0.2477,-0.245,-0.2453,-0.2442,-0.242,-0.242,-0.2394,-0.2431,-0.2361,-0.2365,-0.2454,-0.2454,-0.2455,0,-0.2155,-0.2206,-0.2272,-0.2362,-0.2382,-0.2416,-0.2481,-0.252,-0.2568,-0.2581,-0.2594,-0.2585,-0.2587,-0.2544,-0.253,-0.2524,-0.2491,-0.2472,-0.2472,-0.2422,-0.2395,-0.2346,-0.2367,-0.2364,-0.2459,-0.2459,-0.2458,0,-0.2117,-0.2212,-0.2263,-0.2294,-0.2395,-0.2423,-0.2466,-0.2526,-0.2563,-0.2607,-0.263,-0.264,-0.2633,-0.261,-0.2559,-0.2545,-0.2543,-0.2522,-0.247,-0.2468,-0.2392,-0.2381,-0.2409,-0.2512,-0.2512,-0.2512,-0.2512,0,-0.2116,-0.2155,-0.2247,-0.2277,-0.2331,-0.2406,-0.2458,-0.2504,-0.2572,-0.2613,-0.2641,-0.2663,-0.2645,-0.264,-0.2592,-0.2544,-0.257,-0.2482,-0.2472,-0.2412,-0.2404,-0.2382,-0.2384,-0.2512,-0.2512,-0.2512,-0.2512,0,-0.2064,-0.2132,-0.219,-0.2288,-0.2315,-0.2345,-0.2441,-0.2485,-0.2553,-0.2606,-0.2619,-0.2679,-0.2672,-0.2658,-0.2623,-0.258,-0.2506,-0.2514,-0.2445,-0.2426,-0.2368,-0.2376,-0.236,-0.2297,-0.2467,-0.2466,-0.2466,0,-0.2045,-0.2071,-0.2163,-0.2193,-0.2232,-0.2293,-0.2342,-0.2445,-0.249,-0.2604,-0.2621,-0.266,-0.2664,-0.2633,-0.2567,-0.2509,-0.2478,-0.2415,-0.2371,-0.2366,-0.2367,-0.2357,-0.2304,-0.23,-0.2298,-0.2296,-0.2295,0,-0.1994,-0.2019,-0.2066,-0.2119,-0.2169,-0.2225,-0.2296,-0.2336,-0.2457,-0.2521,-0.2592,-0.2615,-0.2611,-0.2541,-0.248,-0.2419,-0.2371,-0.2381,-0.2392,-0.2255,-0.2229,-0.2163,-0.2298,-0.2282,-0.2283,-0.2284,-0.2285,-0.2285,-0.193,-0.1937,-0.1987,-0.2028,-0.2086,-0.2119,-0.2125,-0.2222,-0.2285,-0.2349,-0.2464,-0.2481,-0.25,-0.2406,-0.2368,-0.2279,-0.2267,-0.2209,-0.2224,-0.2221,-0.2141,-0.225,-0.2212,-0.2213,-0.2214,-0.2215,-0.2215,0,-0.1843,-0.186,-0.1896,-0.1935,-0.1942,-0.2002,-0.2066,-0.2056,-0.2088,-0.2195,-0.2242,-0.2313,-0.2267,-0.2284,-0.2234,-0.2156,-0.2086,-0.2099,-0.2072,-0.2025,-0.2136,-0.2109,-0.2027,-0.2027,-0.2027,-0.2027,-0.2027,-0.2027,-0.1796,-0.1787,-0.1804,-0.177,-0.179,-0.1746,-0.1749,-0.176,-0.1806,-0.1851,-0.1932,-0.2027,-0.2085,-0.2289,-0.2222,-0.2124,-0.2056,-0.1992,-0.1992,-0.209,-0.2101,-0.2112,-0.2089,-0.2004,-0.2004,-0.182,-0.1819,-0.1818]},{"header":{"parameterUnit":"m.s-1","parameterCategory":2,"la1":30.2991,"la2":30.254,"lo1":-89.0895,"lo2":-89.0444,"dy":0.0017,"dx":0.0017,"nx":28,"ny":28,"refTime":"2024-04-09T03:00:00:Z","depth":"0","parameterNumber":3,"parameterNumberName":"V-component_of_CURRENTS"},"data":[0,0,0,0,0,0,0,0,0,0,0,0,0,0,0,0,0,0,0,0,0,0,0,0,0,0,0,0,0,0,0,0,0,0,0,0,0,0,0,0,0,0,0,0,0,0,0,0,0,0,0,0,0,0,0,0,0,0,-0.0107,-0.0106,0,-0.0025,-0.0024,-0.0023,0.0029,0.0029,0.0029,0.003,0.0127,0.0129,0.0132,0,0,0,0,0,0,0,0,0,0,0,0,0,-0.0171,-0.017,-0.0107,-0.0106,-0.0105,-0.0025,-0.0024,-0.0023,0.0029,0.0029,0.0029,0.003,0.0126,0.0129,0.0132,0,0,0,0,0,0,0,0,0,0,0,0,0,-0.0121,-0.017,-0.0107,-0.007,-0.0066,-0.0025,-0.0024,-0.0022,0.0029,0.0029,0.003,0.003,0.0125,0.0129,0.0132,0.0148,0,0,0.0143,0.0145,0,0,0,0,0,0,0,0,-0.0124,-0.0118,-0.0076,-0.0073,-0.0068,-0.0009,-0.0011,0.0035,0.0029,-0.0006,0.003,0.003,0.0082,0.0089,0.0105,0.0152,0.0156,0.0143,0.0146,0.0147,0.0148,0,0,0,0,0,0,0,-0.0127,-0.0121,-0.0073,-0.0076,-0.007,-0.0042,-0.0035,-0.0002,0.0036,-0.0003,0.0001,0.0008,0.0085,0.0101,0.0108,0.0158,0.0143,0.0147,0.0149,0.015,0.0245,0.0245,0,0,0,0,0,0,-0.0142,-0.0125,-0.0076,-0.0071,-0.0097,-0.0041,-0.0033,-0.0027,0.0036,0.0045,0.0008,0.001,0.0095,0.0103,0.0111,0.0146,0.0147,0.015,0.0153,0.0244,0.0245,0.0245,0,0,0,0,0,0,-0.0144,-0.0139,-0.0079,-0.0097,-0.0087,-0.0041,-0.0034,-0.0026,-0.0009,0.0043,0.0054,0.0015,0.0096,0.0106,0.0144,0.015,0.0152,0.0155,0.0244,0.0244,0.0245,0.0207,0,0,0,0,0,0,-0.0146,-0.014,-0.0144,-0.0098,-0.0087,-0.0062,-0.0035,-0.0025,-0.0006,-0.0002,0.0053,0.0063,0.0097,0.0139,0.0148,0.0155,0.0158,0.0243,0.0244,0.0245,0.0208,0.0207,0.0205,0,0,0,0,0,-0.0149,-0.0158,-0.0145,-0.0139,-0.0093,-0.0063,-0.0055,-0.0019,-0.0006,-0.0002,0.004,0.0061,0.015,0.0142,0.0153,0.016,0.0243,0.0244,0.0245,0.0209,0.0207,0.0205,0,0,0,0,0,0,-0.0191,-0.0153,-0.0137,-0.0135,-0.0104,-0.0054,-0.0051,-0.0025,0.0012,0.0015,0.0066,0.0079,0.0113,0.0142,0.0132,0.019,0.0199,0.0202,0.0169,0.0167,0.0166,0.015,0.0161,0,0,0,0,0,-0.0203,-0.0199,-0.0155,-0.0155,-0.0143,-0.0098,-0.0082,-0.0058,-0.0018,-0.0002,0.0039,0.0084,0.0125,0.0149,0.0184,0.0216,0.0249,0.0229,0.0227,0.0226,0.0221,0.0277,0.028,0.0248,0.0248,0.0248,0,0,-0.022,-0.0198,-0.0196,-0.0164,-0.0138,-0.0126,-0.0088,-0.007,-0.0053,0.0002,0.0034,0.0076,0.013,0.0168,0.0186,0.0194,0.0253,0.0227,0.0225,0.0221,0.0278,0.0281,0.0284,0.0248,0.0248,0.0248,0,0,-0.0256,-0.0233,-0.0243,-0.0218,-0.0185,-0.0153,-0.0151,-0.0103,-0.0075,-0.004,0.0007,0.0055,0.0109,0.016,0.019,0.0203,0.0239,0.0209,0.0196,0.025,0.0253,0.0256,0.0304,0.0312,0.0214,0.0214,0.0214,0,-0.0279,-0.0282,-0.0241,-0.0241,-0.0227,-0.017,-0.0174,-0.0135,-0.0078,-0.0053,-0.0039,0.0063,0.0109,0.0172,0.0178,0.02,0.023,0.0197,0.0248,0.0251,0.0255,0.0304,0.0313,0.0212,0.0212,0.0213,0.0213,0,-0.0315,-0.0318,-0.0322,-0.03,-0.0277,-0.0272,-0.0214,-0.0187,-0.0148,-0.0102,-0.0038,0.0034,0.0096,0.0122,0.0154,0.0207,0.022,0.0234,0.0249,0.0256,0.0307,0.0317,0.021,0.021,0.0211,0.0211,0,0,-0.0366,-0.0353,-0.0353,-0.0359,-0.0309,-0.0297,-0.0263,-0.0215,-0.0192,-0.0122,-0.0082,0.0006,0.0051,0.0089,0.0146,0.0199,0.0257,0.0221,0.0225,0.0262,0.037,0.0421,0.0437,0.0276,0.0277,0.0278,0.0396,0,-0.0409,-0.044,-0.0404,-0.042,-0.0432,-0.0364,-0.0338,-0.028,-0.0221,-0.0166,-0.0067,-0.0013,0.0039,0.0069,0.0133,0.0225,0.028,0.0223,0.0363,0.0368,0.0407,0.045,0.0508,0.0622,0.0406,0.0408,0.0409,0,-0.0453,-0.047,-0.0503,-0.0491,-0.0486,-0.0476,-0.0424,-0.0391,-0.029,-0.0241,-0.0155,-0.0077,0.0029,0.0059,0.0228,0.0186,0.0269,0.0341,0.0347,0.0413,0.0437,0.0581,0.0648,0.0824,0.0424,0.0423,0.0422,0,-0.0524,-0.0533,-0.0568,-0.0563,-0.0536,-0.0528,-0.0504,-0.042,-0.0392,-0.0288,-0.0252,-0.0114,-0.0041,0.0082,0.0248,0.0232,0.0429,0.0428,0.0555,0.0559,0.0647,0.0657,0.0897,0.0535,0.0535,0.0534,0.0534,0,-0.0587,-0.0611,-0.0609,-0.0628,-0.0661,-0.0603,-0.0603,-0.0555,-0.0475,-0.0439,-0.0301,-0.0231,-0.0035,0.011,0.0241,0.0444,0.0431,0.0564,0.06,0.0636,0.0643,0.0829,0.0881,0.0539,0.0538,0.0537,0.0536,0,-0.066,-0.0659,-0.07,-0.0696,-0.0702,-0.0722,-0.0693,-0.0682,-0.0594,-0.0541,-0.051,-0.0312,-0.0107,0.0098,0.0322,0.0443,0.073,0.0688,0.0718,0.0756,0.1021,0.1066,0.1289,0.1375,0.0842,0.0844,0.0846,0,-0.0702,-0.0735,-0.077,-0.0808,-0.0812,-0.0831,-0.0841,-0.0763,-0.0736,-0.0583,-0.0557,-0.0341,-0.016,0.021,0.0473,0.0738,0.0839,0.0918,0.0903,0.1065,0.1142,0.1151,0.1207,0.1008,0.1011,0.1013,0.1015,0,-0.0781,-0.079,-0.0829,-0.0916,-0.0949,-0.0973,-0.097,-0.0964,-0.0852,-0.0767,-0.0601,-0.044,-0.0042,0.0334,0.0686,0.0829,0.105,0.0974,0.115,0.1303,0.1323,0.1413,0.0891,0.1036,0.1034,0.1033,0.1031,0.1031,-0.0832,-0.0887,-0.0945,-0.1023,-0.1067,-0.1097,-0.1111,-0.1058,-0.0995,-0.0825,-0.0644,-0.0343,0.0218,0.0752,0.093,0.133,0.1239,0.143,0.1474,0.1471,0.1556,0.1075,0.1252,0.1251,0.125,0.1249,0.1249,0,-0.0897,-0.0962,-0.105,-0.1128,-0.119,-0.1183,-0.1182,-0.1147,-0.1062,-0.0819,-0.0601,0.0058,0.0593,0.1069,0.1647,0.1838,0.185,0.1915,0.1963,0.1997,0.1602,0.1613,0.1869,0.1868,0.1868,0.1868,0.1868,0.1868,-0.0937,-0.1041,-0.1093,-0.1219,-0.1268,-0.1315,-0.1312,-0.1211,-0.1033,-0.061,-0.021,0.0137,0.0837,0.1788,0.2299,0.2315,0.2467,0.2427,0.2498,0.2254,0.2212,0.2172,0.22,0.2574,0.2575,0.2887,0.289,0.2893]}],[{"header":{"parameterUnit":"m.s-1","parameterCategory":2,"la1":30.2991,"la2":30.254,"lo1":-89.0895,"lo2":-89.0444,"dy":0.0017,"dx":0.0017,"nx":28,"ny":28,"refTime":"2024-04-09T03:00:00:Z","depth":"2","parameterNumber":2,"parameterNumberName":"U-component_of_CURRENTS"},"data":[0,0,0,0,0,0,0,0,0,0,0,0,0,0,0,0,0,0,0,0,0,0,0,0,0,0,0,0,0,0,0,0,0,0,0,0,0,0,0,0,0,0,0,0,0,0,0,0,0,0,0,0,0,0,0,0,0,0,-0.2141,-0.2142,0,-0.2161,-0.2161,-0.216,-0.214,-0.2139,-0.2139,-0.2139,-0.2097,-0.2097,-0.2096,0,0,0,0,0,0,0,0,0,0,0,0,0,-0.2059,-0.206,-0.2141,-0.2142,-0.2142,-0.2161,-0.2161,-0.216,-0.214,-0.2139,-0.2139,-0.2138,-0.2097,-0.2097,-0.2096,0,0,0,0,0,0,0,0,0,0,0,0,0,-0.2085,-0.2061,-0.2141,-0.2137,-0.2137,-0.2161,-0.2161,-0.216,-0.214,-0.2139,-0.2139,-0.2138,-0.2098,-0.2097,-0.2096,-0.2103,0,0,-0.2093,-0.2092,0,0,0,0,0,0,0,0,-0.2083,-0.2087,-0.2137,-0.2137,-0.2138,-0.215,-0.2117,-0.2139,-0.214,-0.2135,-0.2139,-0.2138,-0.2112,-0.211,-0.2111,-0.2101,-0.2099,-0.2092,-0.2092,-0.2091,-0.2091,0,0,0,0,0,0,0,-0.2082,-0.2086,-0.2145,-0.2138,-0.2138,-0.2125,-0.2128,-0.2121,-0.2123,-0.2135,-0.2135,-0.2143,-0.2111,-0.2112,-0.2109,-0.2098,-0.2092,-0.2092,-0.2091,-0.209,-0.2086,-0.2087,0,0,0,0,0,0,-0.2089,-0.2085,-0.2144,-0.2146,-0.2113,-0.2128,-0.2131,-0.2144,-0.2125,-0.2123,-0.2144,-0.2142,-0.2114,-0.2111,-0.2108,-0.2124,-0.2091,-0.209,-0.209,-0.2086,-0.2087,-0.2087,0,0,0,0,0,0,-0.2088,-0.2095,-0.2144,-0.2118,-0.2124,-0.2131,-0.2145,-0.2145,-0.2147,-0.2132,-0.2128,-0.2148,-0.2113,-0.2109,-0.2107,-0.2121,-0.209,-0.2089,-0.2085,-0.2086,-0.2087,-0.2149,0,0,0,0,0,0,-0.2085,-0.2094,-0.2101,-0.2119,-0.2126,-0.2165,-0.2146,-0.2146,-0.2155,-0.2153,-0.2134,-0.2129,-0.2112,-0.2109,-0.2106,-0.2119,-0.2088,-0.2085,-0.2086,-0.2087,-0.2147,-0.2152,-0.2157,0,0,0,0,0,-0.2082,-0.2099,-0.2101,-0.2108,-0.2137,-0.2166,-0.2168,-0.2167,-0.2156,-0.2164,-0.215,-0.213,-0.2113,-0.2109,-0.2106,-0.2119,-0.2084,-0.2085,-0.2086,-0.2144,-0.2151,-0.2157,0,0,0,0,0,0,-0.2063,-0.2099,-0.2102,-0.2127,-0.2148,-0.2164,-0.2168,-0.2172,-0.2168,-0.216,-0.214,-0.2136,-0.2136,-0.212,-0.2116,-0.2119,-0.2094,-0.2094,-0.2139,-0.2145,-0.215,-0.2153,-0.2087,0,0,0,0,0,-0.2065,-0.2083,-0.2117,-0.2133,-0.2145,-0.2157,-0.2166,-0.2172,-0.2175,-0.2173,-0.2162,-0.2147,-0.2139,-0.2136,-0.2123,-0.2131,-0.212,-0.2135,-0.214,-0.2144,-0.2144,-0.2149,-0.2155,-0.2091,-0.2091,-0.2091,0,0,-0.206,-0.2082,-0.2091,-0.2129,-0.2139,-0.2169,-0.216,-0.218,-0.22,-0.2168,-0.2179,-0.2163,-0.2144,-0.2149,-0.2148,-0.2138,-0.2158,-0.2146,-0.215,-0.2147,-0.2151,-0.2157,-0.2162,-0.2092,-0.2091,-0.2091,0,0,-0.2064,-0.2081,-0.2101,-0.2127,-0.2158,-0.2172,-0.2182,-0.2205,-0.2209,-0.2225,-0.2204,-0.22,-0.219,-0.2184,-0.2178,-0.2204,-0.2183,-0.2197,-0.223,-0.2236,-0.2241,-0.2246,-0.225,-0.2255,-0.2203,-0.2204,-0.2204,0,-0.2056,-0.2091,-0.2109,-0.2141,-0.2165,-0.2177,-0.221,-0.2223,-0.2241,-0.2251,-0.2233,-0.2229,-0.2208,-0.2224,-0.2226,-0.2217,-0.2214,-0.2212,-0.2244,-0.2248,-0.2252,-0.2255,-0.2259,-0.2207,-0.2206,-0.2206,-0.2206,0,-0.2079,-0.2112,-0.2126,-0.2172,-0.2199,-0.2228,-0.226,-0.2278,-0.2282,-0.2295,-0.2308,-0.2287,-0.2283,-0.2278,-0.2257,-0.2277,-0.2265,-0.2249,-0.2232,-0.2262,-0.2263,-0.2267,-0.2211,-0.221,-0.2209,-0.2208,0,0,-0.2046,-0.2128,-0.2132,-0.2165,-0.2221,-0.2246,-0.2286,-0.2328,-0.2354,-0.236,-0.2389,-0.2372,-0.2357,-0.2348,-0.2328,-0.233,-0.235,-0.2301,-0.23,-0.2311,-0.2365,-0.2334,-0.2334,-0.2343,-0.2344,-0.2344,-0.2359,0,-0.2056,-0.2122,-0.2162,-0.2221,-0.226,-0.2298,-0.2338,-0.2376,-0.2395,-0.2425,-0.2416,-0.2425,-0.2387,-0.2382,-0.2382,-0.2355,-0.236,-0.2347,-0.2327,-0.2326,-0.23,-0.2337,-0.2124,-0.2117,-0.2361,-0.2362,-0.2362,0,-0.2061,-0.211,-0.2174,-0.2261,-0.228,-0.2314,-0.2379,-0.2417,-0.2465,-0.248,-0.2494,-0.2486,-0.2489,-0.2448,-0.2435,-0.2429,-0.2398,-0.2379,-0.2379,-0.2328,-0.2301,-0.2122,-0.2113,-0.2367,-0.2367,-0.2367,-0.2366,0,-0.2024,-0.2115,-0.2165,-0.2196,-0.2293,-0.2322,-0.2364,-0.2424,-0.246,-0.2506,-0.253,-0.2541,-0.2536,-0.2514,-0.2465,-0.2452,-0.2451,-0.2429,-0.2377,-0.2375,-0.2177,-0.2156,-0.242,-0.242,-0.242,-0.242,-0.242,0,-0.2023,-0.2061,-0.2151,-0.218,-0.2233,-0.2306,-0.2358,-0.2404,-0.2472,-0.2512,-0.2542,-0.2564,-0.2549,-0.2544,-0.2498,-0.2451,-0.2477,-0.2389,-0.2379,-0.2194,-0.2175,-0.2373,-0.2367,-0.242,-0.242,-0.242,-0.242,0,-0.1973,-0.2039,-0.2095,-0.2191,-0.2218,-0.2247,-0.2342,-0.2385,-0.2454,-0.2507,-0.2521,-0.258,-0.2575,-0.2562,-0.2529,-0.2486,-0.2448,-0.2421,-0.2209,-0.2174,-0.2362,-0.236,-0.2376,-0.2375,-0.2374,-0.2374,-0.2373,0,-0.1955,-0.1979,-0.207,-0.2099,-0.2138,-0.2198,-0.2247,-0.2348,-0.2392,-0.2504,-0.2521,-0.2561,-0.256,-0.2531,-0.244,-0.2376,-0.2429,-0.2172,-0.2109,-0.2371,-0.2359,-0.2358,-0.2356,-0.1869,-0.1864,-0.1861,-0.1857,0,-0.1905,-0.193,-0.1975,-0.2027,-0.2078,-0.2131,-0.2201,-0.2239,-0.2358,-0.2416,-0.2484,-0.2503,-0.2477,-0.2317,-0.2248,-0.2177,-0.217,-0.2097,-0.241,-0.1928,-0.1898,-0.1886,-0.1899,-0.1824,-0.1827,-0.183,-0.1831,-0.1833,-0.1843,-0.185,-0.1899,-0.1939,-0.1996,-0.2026,-0.2032,-0.2107,-0.2161,-0.2175,-0.2313,-0.2243,-0.2238,-0.2001,-0.193,-0.1851,-0.1988,-0.1886,-0.1894,-0.1908,-0.1862,-0.1833,-0.1738,-0.1741,-0.1743,-0.1745,-0.1747,0,-0.1751,-0.1775,-0.181,-0.1847,-0.1844,-0.1913,-0.1973,-0.192,-0.1918,-0.1945,-0.1951,-0.1741,-0.1664,-0.1659,-0.1486,-0.1495,-0.1447,-0.1444,-0.1359,-0.1393,-0.1423,-0.1351,-0.1092,-0.1091,-0.1089,-0.1088,0,0,-0.1703,-0.169,-0.1706,-0.1666,-0.1693,-0.1628,-0.1628,-0.1559,-0.1523,-0.1409,-0.1353,-0.1461,-0.1557,-0.1284,-0.1263,-0.1146,-0.1247,-0.109,-0.1607,-0.1534,-0.1562,-0.1665,-0.1591,0,0,0,0,0]},{"header":{"parameterUnit":"m.s-1","parameterCategory":2,"la1":30.2991,"la2":30.254,"lo1":-89.0895,"lo2":-89.0444,"dy":0.0017,"dx":0.0017,"nx":28,"ny":28,"refTime":"2024-04-09T03:00:00:Z","depth":"2","parameterNumber":3,"parameterNumberName":"V-component_of_CURRENTS"},"data":[0,0,0,0,0,0,0,0,0,0,0,0,0,0,0,0,0,0,0,0,0,0,0,0,0,0,0,0,0,0,0,0,0,0,0,0,0,0,0,0,0,0,0,0,0,0,0,0,0,0,0,0,0,0,0,0,0,0,-0.0139,-0.0139,0,-0.006,-0.0059,-0.0058,-0.0007,-0.0007,-0.0007,-0.0007,0.0088,0.0091,0.0093,0,0,0,0,0,0,0,0,0,0,0,0,0,-0.0202,-0.0201,-0.014,-0.0139,-0.0138,-0.006,-0.0059,-0.0058,-0.0007,-0.0007,-0.0007,-0.0007,0.0088,0.009,0.0093,0,0,0,0,0,0,0,0,0,0,0,0,0,-0.0153,-0.0201,-0.014,-0.0104,-0.01,-0.0061,-0.0059,-0.0058,-0.0007,-0.0007,-0.0007,-0.0006,0.0087,0.009,0.0094,0.0108,0,0,0.0104,0.0106,0,0,0,0,0,0,0,0,-0.0156,-0.0151,-0.011,-0.0106,-0.0102,-0.0044,-0.0046,-0.0002,-0.0008,-0.0042,-0.0007,-0.0006,0.0045,0.0052,0.0067,0.0113,0.0117,0.0105,0.0107,0.0108,0.0109,0,0,0,0,0,0,0,-0.016,-0.0154,-0.0107,-0.0109,-0.0104,-0.0076,-0.0069,-0.0037,-0.0,-0.0039,-0.0035,-0.0028,0.0047,0.0063,0.007,0.0118,0.0104,0.0108,0.011,0.0111,0.0203,0.0203,0,0,0,0,0,0,-0.0174,-0.0157,-0.011,-0.0105,-0.013,-0.0076,-0.0068,-0.0062,-0.0001,0.0008,-0.0028,-0.0026,0.0057,0.0065,0.0073,0.0107,0.0108,0.0111,0.0113,0.0202,0.0203,0.0203,0,0,0,0,0,0,-0.0176,-0.017,-0.0113,-0.013,-0.0121,-0.0075,-0.0069,-0.0061,-0.0044,0.0007,0.0017,-0.002,0.0058,0.0068,0.0105,0.0111,0.0113,0.0116,0.0202,0.0202,0.0203,0.0167,0,0,0,0,0,0,-0.0178,-0.0172,-0.0175,-0.0131,-0.012,-0.0097,-0.0069,-0.006,-0.0041,-0.0037,0.0017,0.0026,0.0059,0.01,0.0109,0.0116,0.0119,0.0201,0.0202,0.0203,0.0168,0.0166,0.0165,0,0,0,0,0,-0.018,-0.019,-0.0176,-0.017,-0.0126,-0.0097,-0.0089,-0.0055,-0.0041,-0.0038,0.0004,0.0024,0.011,0.0103,0.0113,0.0121,0.0201,0.0202,0.0203,0.0169,0.0167,0.0165,0,0,0,0,0,0,-0.0222,-0.0184,-0.0168,-0.0167,-0.0137,-0.0089,-0.0086,-0.006,-0.0024,-0.0021,0.0029,0.0042,0.0075,0.0103,0.0093,0.015,0.0159,0.0162,0.0129,0.0128,0.0127,0.0111,0.0122,0,0,0,0,0,-0.0233,-0.0229,-0.0187,-0.0187,-0.0175,-0.0131,-0.0116,-0.0092,-0.0053,-0.0038,0.0003,0.0046,0.0086,0.011,0.0144,0.0175,0.0208,0.0188,0.0186,0.0185,0.018,0.0235,0.0238,0.0206,0.0206,0.0206,0,0,-0.025,-0.0229,-0.0227,-0.0195,-0.017,-0.0159,-0.0121,-0.0104,-0.0087,-0.0033,-0.0003,0.0039,0.0092,0.0128,0.0146,0.0153,0.0212,0.0186,0.0184,0.018,0.0236,0.0239,0.0242,0.0206,0.0206,0.0206,0,0,-0.0285,-0.0263,-0.0272,-0.0249,-0.0217,-0.0186,-0.0183,-0.0136,-0.0109,-0.0075,-0.0029,0.0019,0.0071,0.0121,0.015,0.0162,0.0198,0.0169,0.0156,0.021,0.0213,0.0216,0.0263,0.027,0.0174,0.0174,0.0173,0,-0.0308,-0.0311,-0.0271,-0.0271,-0.0257,-0.0202,-0.0206,-0.0168,-0.0112,-0.0088,-0.0074,0.0026,0.0071,0.0132,0.0138,0.016,0.0189,0.0157,0.0207,0.0211,0.0215,0.0262,0.0271,0.0172,0.0172,0.0172,0.0172,0,-0.0344,-0.0346,-0.0351,-0.033,-0.0308,-0.0303,-0.0246,-0.0219,-0.0181,-0.0136,-0.0074,-0.0002,0.0058,0.0084,0.0115,0.0168,0.018,0.0194,0.0208,0.0216,0.0266,0.0275,0.017,0.017,0.0171,0.0171,0,0,-0.0394,-0.0382,-0.0382,-0.0388,-0.0339,-0.0328,-0.0295,-0.0248,-0.0226,-0.0156,-0.0117,-0.0031,0.0014,0.0051,0.0107,0.016,0.0218,0.0182,0.0186,0.0222,0.033,0.0376,0.0391,0.0237,0.0238,0.0239,0.0354,0,-0.0437,-0.0468,-0.0433,-0.0449,-0.0461,-0.0394,-0.0369,-0.0313,-0.0254,-0.0201,-0.0103,-0.0049,0.0002,0.0032,0.0096,0.0186,0.0241,0.0185,0.0322,0.0326,0.0362,0.0403,0.032,0.0419,0.0364,0.0366,0.0367,0,-0.048,-0.0498,-0.0531,-0.052,-0.0515,-0.0506,-0.0454,-0.0423,-0.0323,-0.0275,-0.019,-0.0113,-0.0008,0.0022,0.0189,0.0148,0.023,0.03,0.0307,0.0367,0.0391,0.0404,0.0439,0.0384,0.0382,0.0381,0.038,0,-0.055,-0.056,-0.0595,-0.059,-0.0565,-0.0557,-0.0534,-0.0451,-0.0424,-0.0321,-0.0285,-0.0149,-0.0077,0.0045,0.0208,0.0193,0.0386,0.0387,0.0507,0.0511,0.0478,0.0477,0.0492,0.0492,0.0492,0.0492,0.0491,0,-0.0613,-0.0637,-0.0635,-0.0655,-0.0687,-0.0631,-0.0631,-0.0584,-0.0505,-0.047,-0.0334,-0.0266,-0.0071,0.0071,0.0201,0.0399,0.0388,0.0516,0.0551,0.0464,0.0461,0.0455,0.0449,0.0496,0.0495,0.0494,0.0493,0,-0.0686,-0.0684,-0.0725,-0.0722,-0.0727,-0.0748,-0.0719,-0.0709,-0.0622,-0.0571,-0.0541,-0.0346,-0.0146,0.0056,0.0277,0.0396,0.057,0.0635,0.0524,0.0545,0.0656,0.0646,0.0778,0.0781,0.0783,0.0785,0.0787,0,-0.0727,-0.076,-0.0794,-0.0831,-0.0836,-0.0854,-0.0864,-0.0788,-0.0763,-0.0614,-0.0588,-0.0377,-0.0205,0.0157,0.0387,0.0639,0.0645,0.071,0.0676,0.0668,0.0689,0.0676,0.0664,0.0614,0.0614,0.0614,0.0614,0,-0.0805,-0.0813,-0.0852,-0.0938,-0.0971,-0.0995,-0.0992,-0.0987,-0.0877,-0.0798,-0.0638,-0.0485,-0.0124,0.016,0.0494,0.0618,0.0666,0.0721,0.0752,0.056,0.0524,0.0541,0.0532,0.0615,0.0615,0.0615,0.0615,0.0615,-0.0855,-0.0909,-0.0966,-0.1043,-0.1087,-0.1117,-0.1132,-0.1085,-0.1028,-0.0883,-0.0707,-0.0464,-0.0161,0.03,0.0533,0.0724,0.0731,0.076,0.0754,0.075,0.0716,0.0687,0.0802,0.0802,0.0803,0.0804,0.0805,0,-0.0919,-0.0983,-0.1069,-0.1147,-0.1206,-0.1202,-0.1202,-0.1172,-0.1098,-0.0922,-0.0734,-0.0412,-0.0071,0.0233,0.0538,0.0754,0.0704,0.0773,0.0663,0.0661,0.0659,0.0616,0.0678,0.0679,0.0679,0.068,0,0,-0.0957,-0.1059,-0.111,-0.1233,-0.1283,-0.1328,-0.1327,-0.1246,-0.1116,-0.0933,-0.075,-0.0467,-0.0077,0.0124,0.0384,0.0541,0.054,0.0538,0.061,0.0445,0.0442,0.0618,0.0546,0,0,0,0,0]}],[{"header":{"parameterUnit":"m.s-1","parameterCategory":2,"la1":30.2991,"la2":30.254,"lo1":-89.0895,"lo2":-89.0444,"dy":0.0017,"dx":0.0017,"nx":28,"ny":28,"refTime":"2024-04-09T03:00:00:Z","depth":"4","parameterNumber":2,"parameterNumberName":"U-component_of_CURRENTS"},"data":[0,0,0,0,0,0,0,0,0,0,0,0,0,0,0,0,0,0,0,0,0,0,0,0,0,0,0,0,0,0,0,0,0,0,0,0,0,0,0,0,0,0,0,0,0,0,0,0,0,0,0,0,0,0,0,0,0,0,-0.139,-0.1391,0,-0.1446,-0.1446,-0.1446,-0.148,-0.1481,-0.1481,-0.1482,-0.151,-0.151,-0.151,0,0,0,0,0,0,0,0,0,0,0,0,0,-0.1292,-0.1293,-0.139,-0.1391,-0.1392,-0.1446,-0.1446,-0.1447,-0.148,-0.1481,-0.1481,-0.1482,-0.151,-0.151,-0.1511,0,0,0,0,0,0,0,0,0,0,0,0,0,-0.1337,-0.1294,-0.139,-0.1417,-0.142,-0.1445,-0.1446,-0.1447,-0.148,-0.1481,-0.1481,-0.1482,-0.1509,-0.151,-0.1511,-0.1502,0,0,-0.1512,-0.1513,0,0,0,0,0,0,0,0,-0.1335,-0.134,-0.1412,-0.1415,-0.1419,-0.1459,-0.1422,-0.1465,-0.148,-0.1455,-0.1482,-0.1482,-0.1491,-0.1493,-0.15,-0.1504,-0.1505,-0.1512,-0.1513,-0.1513,-0.1513,0,0,0,0,0,0,0,-0.1331,-0.1338,-0.141,-0.1413,-0.1417,-0.1419,-0.1426,-0.143,-0.1467,-0.1457,-0.146,-0.147,-0.1493,-0.1499,-0.15,-0.1505,-0.1512,-0.1513,-0.1513,-0.1513,-0.1565,-0.1566,0,0,0,0,0,0,-0.133,-0.1335,-0.1408,-0.1412,-0.138,-0.1421,-0.1428,-0.1443,-0.1467,-0.1473,-0.147,-0.1471,-0.1498,-0.15,-0.1501,-0.156,-0.1513,-0.1514,-0.1514,-0.1564,-0.1565,-0.1567,0,0,0,0,0,0,-0.1328,-0.1336,-0.1406,-0.1376,-0.1385,-0.1422,-0.1438,-0.1444,-0.1477,-0.1478,-0.1482,-0.1499,-0.1498,-0.1501,-0.1531,-0.1559,-0.1514,-0.1514,-0.1563,-0.1565,-0.1566,-0.1634,0,0,0,0,0,0,-0.1325,-0.1335,-0.1354,-0.1376,-0.1387,-0.144,-0.1438,-0.1445,-0.1481,-0.1485,-0.1504,-0.1506,-0.1499,-0.1531,-0.1532,-0.1559,-0.1515,-0.1562,-0.1564,-0.1565,-0.163,-0.1638,-0.1644,0,0,0,0,0,-0.1321,-0.1343,-0.1355,-0.1364,-0.141,-0.1441,-0.1447,-0.1472,-0.1483,-0.1502,-0.1518,-0.1507,-0.1543,-0.1532,-0.1534,-0.1561,-0.1561,-0.1563,-0.1565,-0.1627,-0.1636,-0.1644,0,0,0,0,0,0,-0.1309,-0.1349,-0.1363,-0.1396,-0.1426,-0.1448,-0.147,-0.1487,-0.1515,-0.1523,-0.1522,-0.1526,-0.1559,-0.1551,-0.1538,-0.158,-0.1549,-0.1552,-0.1596,-0.1604,-0.161,-0.1611,-0.1515,0,0,0,0,0,-0.1316,-0.1344,-0.1378,-0.1406,-0.1422,-0.1451,-0.147,-0.149,-0.1513,-0.1528,-0.1543,-0.1555,-0.1565,-0.1579,-0.1582,-0.161,-0.1599,-0.1627,-0.1633,-0.1639,-0.164,-0.1652,-0.1661,-0.1574,-0.1574,-0.1574,0,0,-0.1319,-0.1344,-0.1361,-0.1406,-0.1428,-0.1462,-0.1464,-0.1503,-0.1537,-0.1524,-0.1577,-0.1579,-0.1576,-0.1606,-0.1621,-0.1608,-0.1659,-0.1642,-0.1647,-0.1645,-0.1656,-0.1664,-0.1672,-0.1576,-0.1575,-0.1575,0,0,-0.133,-0.1363,-0.1388,-0.1419,-0.1463,-0.1483,-0.1501,-0.1541,-0.1568,-0.1612,-0.161,-0.1633,-0.1656,-0.1661,-0.1663,-0.1708,-0.1691,-0.1712,-0.1753,-0.1766,-0.1774,-0.178,-0.1782,-0.1787,-0.172,-0.172,-0.172,0,-0.1334,-0.1372,-0.14,-0.1433,-0.1466,-0.1497,-0.1534,-0.1564,-0.1613,-0.1639,-0.1639,-0.1682,-0.1679,-0.1714,-0.1728,-0.1724,-0.1725,-0.1725,-0.1776,-0.1781,-0.1787,-0.1787,-0.1792,-0.1724,-0.1724,-0.1723,-0.1723,0,-0.1356,-0.1401,-0.1419,-0.1474,-0.1511,-0.1549,-0.1595,-0.1637,-0.1671,-0.17,-0.1752,-0.1753,-0.1778,-0.1782,-0.1769,-0.1809,-0.1795,-0.178,-0.1756,-0.18,-0.1797,-0.1801,-0.1729,-0.1728,-0.1727,-0.1726,0,0,-0.1327,-0.1419,-0.1428,-0.1469,-0.154,-0.1571,-0.1634,-0.1695,-0.1742,-0.1784,-0.1839,-0.1856,-0.1861,-0.1863,-0.1856,-0.1868,-0.1902,-0.1845,-0.1844,-0.1849,-0.193,-0.1806,-0.1798,-0.1902,-0.1903,-0.1903,-0.1915,0,-0.1338,-0.1409,-0.1455,-0.153,-0.1571,-0.163,-0.1688,-0.1749,-0.1797,-0.1857,-0.1875,-0.1916,-0.1891,-0.1907,-0.1919,-0.1905,-0.1916,-0.19,-0.1885,-0.1884,-0.177,-0.18,-0.1907,-0.1918,-0.1919,-0.192,-0.192,0,-0.1338,-0.1391,-0.1467,-0.1571,-0.1595,-0.1647,-0.1745,-0.1801,-0.1884,-0.1922,-0.1968,-0.1982,-0.2012,-0.1981,-0.199,-0.1984,-0.1962,-0.1948,-0.1947,-0.1808,-0.1768,-0.1864,-0.1928,-0.1927,-0.1927,-0.1926,-0.1926,0,-0.1292,-0.1398,-0.1461,-0.1497,-0.1615,-0.1667,-0.1729,-0.1821,-0.1873,-0.1963,-0.2002,-0.2045,-0.2063,-0.2057,-0.2023,-0.2016,-0.2022,-0.2006,-0.1877,-0.1868,-0.1947,-0.194,-0.2011,-0.2011,-0.2011,-0.2011,-0.2011,0,-0.1273,-0.1328,-0.1452,-0.1487,-0.1566,-0.1657,-0.1741,-0.181,-0.1907,-0.1957,-0.2027,-0.2052,-0.2083,-0.2086,-0.2052,-0.197,-0.2045,-0.1882,-0.1862,-0.1976,-0.1972,-0.1951,-0.1943,-0.2011,-0.2011,-0.2011,-0.2011,0,-0.1206,-0.1292,-0.1368,-0.1502,-0.1546,-0.16,-0.1735,-0.1791,-0.1893,-0.1958,-0.1987,-0.2068,-0.2061,-0.2072,-0.2057,-0.1987,-0.1936,-0.1888,-0.2012,-0.1998,-0.177,-0.1766,-0.1748,-0.1744,-0.174,-0.1737,-0.1735,0,-0.1177,-0.1212,-0.1353,-0.1399,-0.1463,-0.1561,-0.1628,-0.1761,-0.1808,-0.1938,-0.1947,-0.2,-0.2026,-0.1911,-0.1936,-0.1877,-0.1845,-0.1822,-0.1789,-0.176,-0.1743,-0.1745,-0.1747,-0.1729,-0.1728,-0.1727,-0.1726,0,-0.1111,-0.1168,-0.1231,-0.1319,-0.14,-0.1474,-0.1571,-0.1597,-0.1734,-0.1853,-0.1852,-0.1848,-0.1841,-0.1817,-0.1784,-0.174,-0.1841,-0.1783,-0.179,-0.1759,-0.1737,-0.1724,-0.1729,-0.1713,-0.1715,-0.1716,-0.1717,0,-0.1054,-0.1073,-0.1154,-0.1219,-0.1313,-0.1346,-0.1421,-0.1477,-0.154,-0.169,-0.1682,-0.1739,-0.1817,-0.1744,-0.1713,-0.1663,-0.163,-0.1578,-0.1595,-0.161,-0.1556,-0.1507,-0.1393,0,0,0,0,0,-0.0986,-0.0993,-0.1047,-0.1109,-0.1194,-0.1234,-0.1362,-0.144,-0.158,-0.1537,-0.1604,-0.1588,-0.1557,-0.159,-0.1501,-0.1636,-0.1629,-0.1529,-0.1577,-0.1643,-0.1658,-0.1605,0,0,0,0,0,0,-0.0942,-0.0981,-0.1001,-0.0993,-0.1008,-0.1079,-0.1149,-0.1251,-0.1234,-0.1381,-0.1365,-0.148,-0.1461,-0.156,-0.1458,-0.1467,-0.1465,-0.1575,-0.1571,-0.1635,-0.1648,-0.166,-0.1611,0,0,0,0,0]},{"header":{"parameterUnit":"m.s-1","parameterCategory":2,"la1":30.2991,"la2":30.254,"lo1":-89.0895,"lo2":-89.0444,"dy":0.0017,"dx":0.0017,"nx":28,"ny":28,"refTime":"2024-04-09T03:00:00:Z","depth":"4","parameterNumber":3,"parameterNumberName":"V-component_of_CURRENTS"},"data":[0,0,0,0,0,0,0,0,0,0,0,0,0,0,0,0,0,0,0,0,0,0,0,0,0,0,0,0,0,0,0,0,0,0,0,0,0,0,0,0,0,0,0,0,0,0,0,0,0,0,0,0,0,0,0,0,0,0,-0.0159,-0.0159,0,-0.0109,-0.0108,-0.0108,-0.0075,-0.0075,-0.0075,-0.0075,-0.0004,-0.0002,-0.0001,0,0,0,0,0,0,0,0,0,0,0,0,0,-0.0196,-0.0196,-0.0159,-0.0159,-0.0158,-0.0109,-0.0108,-0.0108,-0.0075,-0.0075,-0.0075,-0.0075,-0.0005,-0.0003,-0.0001,0,0,0,0,0,0,0,0,0,0,0,0,0,-0.0166,-0.0195,-0.0159,-0.0137,-0.0134,-0.0109,-0.0108,-0.0107,-0.0075,-0.0075,-0.0075,-0.0075,-0.0005,-0.0003,-0.0,0.0012,0,0,0.0008,0.0009,0,0,0,0,0,0,0,0,-0.0167,-0.0164,-0.0141,-0.0138,-0.0135,-0.0099,-0.0096,-0.0067,-0.0075,-0.0096,-0.0075,-0.0074,-0.0035,-0.003,-0.002,0.0016,0.0019,0.0008,0.001,0.0011,0.0012,0,0,0,0,0,0,0,-0.017,-0.0166,-0.0138,-0.014,-0.0137,-0.0119,-0.0114,-0.009,-0.0066,-0.0095,-0.0092,-0.0088,-0.0033,-0.0022,-0.0018,0.002,0.0008,0.001,0.0012,0.0013,0.0085,0.0085,0,0,0,0,0,0,-0.0179,-0.0168,-0.014,-0.0137,-0.0152,-0.0118,-0.0113,-0.011,-0.0067,-0.006,-0.0089,-0.0087,-0.0027,-0.0021,-0.0015,0.0012,0.0011,0.0013,0.0015,0.0084,0.0085,0.0085,0,0,0,0,0,0,-0.018,-0.0177,-0.0142,-0.0152,-0.0146,-0.0118,-0.0114,-0.0109,-0.0099,-0.0063,-0.0056,-0.0084,-0.0026,-0.0019,0.0009,0.0015,0.0014,0.0017,0.0084,0.0084,0.0085,0.0061,0,0,0,0,0,0,-0.0182,-0.0178,-0.0182,-0.0153,-0.0146,-0.0133,-0.0115,-0.0108,-0.0097,-0.0095,-0.0057,-0.005,-0.0026,0.0005,0.0012,0.0019,0.0019,0.0084,0.0084,0.0085,0.0062,0.0061,0.006,0,0,0,0,0,-0.0183,-0.0191,-0.0183,-0.0179,-0.0152,-0.0133,-0.0128,-0.0107,-0.0098,-0.0096,-0.0066,-0.0051,0.0014,0.0007,0.0015,0.0023,0.0083,0.0084,0.0085,0.0062,0.0061,0.006,0,0,0,0,0,0,-0.021,-0.0187,-0.0178,-0.0178,-0.016,-0.0128,-0.0128,-0.011,-0.0085,-0.0084,-0.0047,-0.0038,-0.0012,0.0009,0.0001,0.0046,0.0051,0.0053,0.0031,0.003,0.003,0.0016,0.0021,0,0,0,0,0,-0.0218,-0.0218,-0.0191,-0.0193,-0.0186,-0.0158,-0.0149,-0.0133,-0.0106,-0.0095,-0.0066,-0.0034,-0.0003,0.0015,0.0041,0.0066,0.0092,0.0077,0.0076,0.0075,0.0069,0.0119,0.0123,0.0087,0.0087,0.0087,0,0,-0.023,-0.0218,-0.0218,-0.0199,-0.0184,-0.0179,-0.0152,-0.0142,-0.0133,-0.0092,-0.0071,-0.0038,0.0002,0.0031,0.0044,0.0049,0.0099,0.0076,0.0075,0.007,0.0121,0.0124,0.0127,0.0088,0.0088,0.0088,0,0,-0.0257,-0.0243,-0.0253,-0.0239,-0.022,-0.02,-0.0199,-0.0168,-0.0149,-0.0125,-0.0089,-0.005,-0.0012,0.0027,0.005,0.0062,0.009,0.0067,0.0057,0.0106,0.0109,0.0112,0.0148,0.0155,0.0071,0.0071,0.0071,0,-0.0274,-0.0281,-0.0254,-0.0257,-0.0251,-0.0212,-0.0219,-0.0192,-0.0154,-0.0136,-0.0125,-0.0046,-0.0011,0.0039,0.0044,0.0061,0.0085,0.0057,0.0105,0.0109,0.0112,0.0148,0.0156,0.007,0.007,0.007,0.007,0,-0.0304,-0.031,-0.0315,-0.0306,-0.0293,-0.0294,-0.0254,-0.0236,-0.0209,-0.0175,-0.0125,-0.0067,-0.002,0.0002,0.0026,0.0073,0.008,0.0095,0.0105,0.0114,0.0152,0.016,0.0068,0.0068,0.0069,0.0069,0,0,-0.0341,-0.0339,-0.0341,-0.035,-0.032,-0.0315,-0.0294,-0.0262,-0.0248,-0.0193,-0.0164,-0.0092,-0.0054,-0.0025,0.0022,0.0069,0.012,0.0088,0.0091,0.0118,0.0218,0.0189,0.0196,0.0142,0.0143,0.0145,0.0233,0,-0.0376,-0.0406,-0.0384,-0.0404,-0.0417,-0.0372,-0.0357,-0.0318,-0.0274,-0.0234,-0.0152,-0.011,-0.0065,-0.004,0.0017,0.0094,0.0141,0.0094,0.0209,0.0212,0.0182,0.0204,0.0149,0.024,0.0242,0.0243,0.0244,0,-0.0411,-0.0428,-0.0462,-0.0462,-0.0461,-0.0462,-0.0431,-0.041,-0.0335,-0.0298,-0.0227,-0.0164,-0.0075,-0.0047,0.0097,0.0064,0.0133,0.0193,0.0199,0.0183,0.0198,0.023,0.0259,0.0258,0.0257,0.0256,0.0255,0,-0.0459,-0.0478,-0.0511,-0.0511,-0.0503,-0.0505,-0.0494,-0.0436,-0.0418,-0.0338,-0.0312,-0.0194,-0.0135,-0.0027,0.0107,0.0101,0.0257,0.0267,0.0309,0.0307,0.0317,0.0313,0.0359,0.0359,0.0359,0.0359,0.0358,0,-0.0501,-0.0528,-0.0543,-0.0561,-0.0598,-0.0563,-0.0575,-0.0542,-0.0487,-0.0463,-0.0352,-0.03,-0.0129,-0.0014,0.0098,0.023,0.0257,0.0308,0.0331,0.0305,0.0298,0.0323,0.0318,0.0362,0.0361,0.0361,0.036,0,-0.0545,-0.0556,-0.0598,-0.0614,-0.0627,-0.065,-0.0648,-0.0646,-0.0585,-0.0549,-0.0526,-0.0373,-0.0221,-0.0053,0.0134,0.0212,0.0343,0.0381,0.0336,0.0356,0.0361,0.0353,0.043,0.043,0.043,0.043,0.043,0,-0.0567,-0.0598,-0.065,-0.0689,-0.0703,-0.0734,-0.0753,-0.0708,-0.0692,-0.0591,-0.0571,-0.0419,-0.0305,-0.0054,0.0116,0.0328,0.0352,0.0411,0.0389,0.0354,0.037,0.0362,0.0355,0.0429,0.0429,0.0429,0.0429,0,-0.0611,-0.0633,-0.067,-0.0756,-0.0799,-0.0835,-0.085,-0.0845,-0.0774,-0.0726,-0.0601,-0.0451,-0.0278,-0.0068,0.01,0.025,0.0368,0.0409,0.041,0.039,0.0354,0.0368,0.0361,0.0428,0.0428,0.0429,0.0429,0,-0.064,-0.0681,-0.074,-0.0809,-0.0873,-0.0909,-0.091,-0.0873,-0.0843,-0.0717,-0.0678,-0.0471,-0.0338,-0.0109,0.0047,0.0193,0.0221,0.025,0.026,0.0263,0.0185,0.0114,0.0135,0,0,0,0,0,-0.066,-0.0714,-0.0789,-0.0857,-0.0919,-0.0952,-0.096,-0.0939,-0.0872,-0.0799,-0.0732,-0.0567,-0.031,-0.0182,-0.0044,0.0025,0.0231,0.0189,0.0266,0.0424,0.0425,0.036,0,0,0,0,0,0,-0.0679,-0.0753,-0.0793,-0.0879,-0.0932,-0.0987,-0.0994,-0.0952,-0.089,-0.0806,-0.0662,-0.0562,-0.0306,-0.0394,-0.005,-0.0002,0.0058,0.0323,0.0325,0.0424,0.0425,0.0425,0.0358,0,0,0,0,0]}]]